User: anonymous   Login
Location: Unspecified
(0.0000°N, 0.0000°E)
Time: 09:24:00
(UTC+00:00)
Language:

Kyokko - Orbit

View from above orbital plane
View from above orbital plane
View from above satellite
View from above satellite

Ground track
Ground track

The orbit data is extracted from the following two-line orbital elements,

1 10664U 78014A   17086.90342199 +.00000007 +00000-0 +56688-4 0  9990
2 10664 065.3791 028.5683 1894510 112.3334 268.8779 10.75462250520520
Epoch (UTC): 27 March 2017 21:40:55
Eccentricity: 0.1894510
inclination: 65.3791°
perigee height: 649 km
apogee height: 3934 km
right ascension of ascending node: 28.5683°
argument of perigee: 112.3334°
revolutions per day: 10.75462250
mean anomaly at epoch: 268.8779°
orbit number at epoch: 52052

The dashed part of the orbit path shows where the satellite is in the earth's shadow,  

DLR